RYR12BL EPBY-LBBG

Flight info

Callsign RYR12BL
Flight time 1h 51m
Altitude 37000
Route INTUN Z96 BIBKA/N0452F330 N133 PENEX/N0455F350 N133 LENOV DCT KEKED DCT NARKA DCT BULEN L742 ESENA
Aircraft B738/M-VGDW/C

Departure

Time 2026-04-30 05:34
Airport Ignacy Jan Paderewski Bydgoszcz Airport (EPBY)

Arrival

Time 2026-04-30 07:25
Airport Burgas Airport (LBBG)
Time Latitude Longitude Altitude Speed Heading
2026-04-30 05:29 53.09575 17.99615 223 ft 0 kts 82°
2026-04-30 05:31 53.09578 17.99632 223 ft 5 kts 72°
2026-04-30 05:31 53.09613 17.99662 223 ft 7 kts
2026-04-30 05:31 53.09664 17.99650 223 ft 7 kts 352°
2026-04-30 05:31 53.09714 17.99638 225 ft 7 kts 352°
2026-04-30 05:32 53.09763 17.99626 224 ft 7 kts 352°
2026-04-30 05:32 53.09808 17.99601 226 ft 7 kts 328°
2026-04-30 05:32 53.09834 17.99537 226 ft 7 kts 264°
2026-04-30 05:32 53.09823 17.99467 225 ft 0 kts 263°
2026-04-30 05:33 53.09811 17.99313 224 ft 44 kts 262°
2026-04-30 05:33 53.09734 17.98393 222 ft 116 kts 262°
2026-04-30 05:33 53.09596 17.96745 377 ft 160 kts 262°
2026-04-30 05:34 53.09461 17.94866 1107 ft 168 kts 264°
2026-04-30 05:34 53.09266 17.92935 2047 ft 170 kts 257°
2026-04-30 05:34 53.08683 17.91104 2537 ft 197 kts 226°
2026-04-30 05:34 53.07403 17.90300 3249 ft 202 kts 174°
2026-04-30 05:35 53.06145 17.91253 3924 ft 209 kts 129°
2026-04-30 05:35 53.05596 17.93418 4450 ft 206 kts 90°
2026-04-30 05:35 53.05492 17.95807 5036 ft 208 kts 80°
2026-04-30 05:35 53.06017 17.97944 5639 ft 198 kts 40°
2026-04-30 05:36 53.07211 17.98872 6309 ft 191 kts
2026-04-30 05:36 53.08486 17.98381 6939 ft 194 kts 340°
2026-04-30 05:36 53.09718 17.97390 7495 ft 199 kts 336°
2026-04-30 05:36 53.11058 17.96688 7735 ft 213 kts
2026-04-30 05:37 53.12416 17.97763 8062 ft 229 kts 46°
2026-04-30 05:37 53.13040 18.00267 8539 ft 251 kts 82°
2026-04-30 05:37 53.12596 18.03239 8913 ft 283 kts 118°
2026-04-30 05:37 53.11149 18.05569 9642 ft 295 kts 136°
2026-04-30 05:38 53.09916 18.08191 10367 ft 286 kts 104°
2026-04-30 05:38 53.09732 18.11395 10904 ft 282 kts 75°
2026-04-30 05:38 53.10303 18.14572 11092 ft 301 kts 66°
2026-04-30 05:38 53.11048 18.17971 11266 ft 324 kts 67°
2026-04-30 05:39 53.11755 18.21655 11507 ft 343 kts 70°
2026-04-30 05:39 53.12365 18.25550 12075 ft 351 kts 73°
2026-04-30 05:39 53.12882 18.29537 12810 ft 354 kts 75°
2026-04-30 05:39 53.13336 18.33586 13538 ft 357 kts 76°
2026-04-30 05:40 53.13754 18.37679 14251 ft 360 kts 76°
2026-04-30 05:40 53.14156 18.41821 14884 ft 363 kts 76°
2026-04-30 05:40 53.14550 18.45992 15527 ft 365 kts 77°
2026-04-30 05:40 53.14943 18.50188 16151 ft 368 kts 76°
2026-04-30 05:41 53.15338 18.54420 16767 ft 371 kts 76°
2026-04-30 05:41 53.15729 18.58622 17373 ft 373 kts 76°
2026-04-30 05:41 53.16128 18.62916 17982 ft 376 kts 76°
2026-04-30 05:41 53.16528 18.67240 18585 ft 379 kts 76°
2026-04-30 05:42 53.16929 18.71591 19123 ft 381 kts 76°
2026-04-30 05:42 53.17327 18.75968 19666 ft 383 kts 76°
2026-04-30 05:42 53.17723 18.80357 20222 ft 384 kts 76°
2026-04-30 05:42 53.18075 18.84792 20730 ft 389 kts 82°
2026-04-30 05:43 53.17741 18.89361 21209 ft 407 kts 100°
2026-04-30 05:43 53.16528 18.93725 21709 ft 425 kts 117°
2026-04-30 05:43 53.14503 18.97440 22171 ft 444 kts 134°
2026-04-30 05:43 53.11771 19.00039 22591 ft 463 kts 153°
2026-04-30 05:44 53.08725 19.01869 23041 ft 468 kts 155°
2026-04-30 05:44 53.05655 19.03586 23426 ft 472 kts 156°
2026-04-30 05:44 53.02516 19.05301 23812 ft 476 kts 156°
2026-04-30 05:44 52.99366 19.07030 24200 ft 478 kts 155°
2026-04-30 05:45 52.96197 19.08792 24567 ft 480 kts 155°
2026-04-30 05:45 52.93023 19.10582 24915 ft 482 kts 155°
2026-04-30 05:45 52.89835 19.12397 25251 ft 484 kts 154°
2026-04-30 05:45 52.86637 19.14229 25572 ft 487 kts 154°
2026-04-30 05:46 52.83428 19.16072 25893 ft 489 kts 154°
2026-04-30 05:46 52.80233 19.17906 26199 ft 492 kts 154°
2026-04-30 05:46 52.76993 19.19763 26508 ft 494 kts 154°
2026-04-30 05:46 52.73739 19.21623 26809 ft 496 kts 154°
2026-04-30 05:47 52.70465 19.23491 27103 ft 499 kts 154°
2026-04-30 05:47 52.67182 19.25360 27390 ft 501 kts 154°
2026-04-30 05:47 52.63871 19.27242 27663 ft 503 kts 153°
2026-04-30 05:47 52.60547 19.29127 27941 ft 505 kts 153°
2026-04-30 05:48 52.57211 19.31016 28214 ft 507 kts 153°
2026-04-30 05:48 52.53865 19.32908 28504 ft 509 kts 153°
2026-04-30 05:48 52.50515 19.34796 28874 ft 509 kts 153°
2026-04-30 05:48 52.47170 19.36678 29306 ft 507 kts 153°
2026-04-30 05:49 52.43839 19.38548 29708 ft 506 kts 153°
2026-04-30 05:49 52.40545 19.40397 30058 ft 506 kts 153°
2026-04-30 05:49 52.37211 19.42267 30408 ft 506 kts 153°
2026-04-30 05:49 52.33869 19.44139 30756 ft 506 kts 153°
2026-04-30 05:50 52.30545 19.45997 31073 ft 505 kts 153°
2026-04-30 05:50 52.27206 19.47860 31380 ft 504 kts 153°
2026-04-30 05:50 52.23886 19.49711 31674 ft 504 kts 153°
2026-04-30 05:50 52.20568 19.51558 31979 ft 504 kts 153°
2026-04-30 05:51 52.17252 19.53400 32280 ft 503 kts 153°
2026-04-30 05:51 52.13938 19.55238 32581 ft 502 kts 153°
2026-04-30 05:51 52.10632 19.57068 32874 ft 502 kts 153°
2026-04-30 05:51 52.07358 19.58879 33157 ft 501 kts 153°
2026-04-30 05:52 52.04051 19.60705 33439 ft 501 kts 153°
2026-04-30 05:52 52.00752 19.62523 33717 ft 500 kts 153°
2026-04-30 05:52 51.97446 19.64343 34004 ft 500 kts 153°
2026-04-30 05:52 51.94192 19.66131 34277 ft 499 kts 153°
2026-04-30 05:53 51.90904 19.67935 34538 ft 499 kts 153°
2026-04-30 05:53 51.87621 19.69733 34770 ft 498 kts 154°
2026-04-30 05:53 51.84342 19.71525 35013 ft 497 kts 154°
2026-04-30 05:53 51.81058 19.73318 35248 ft 496 kts 154°
2026-04-30 05:54 51.78895 19.74498 35398 ft 495 kts 154°
2026-04-30 05:54 51.75624 19.76280 35624 ft 494 kts 155°
2026-04-30 05:54 51.71300 19.78632 35914 ft 493 kts 155°
2026-04-30 05:54 51.68051 19.80395 36139 ft 492 kts 155°
2026-04-30 05:55 51.65852 19.81587 36271 ft 492 kts 156°
2026-04-30 05:55 51.62650 19.83321 36464 ft 491 kts 156°
2026-04-30 05:55 51.59417 19.85069 36696 ft 490 kts 156°
2026-04-30 05:55 51.56187 19.86813 36939 ft 488 kts 156°
2026-04-30 05:56 51.52963 19.88550 37139 ft 487 kts 156°
2026-04-30 05:56 51.49749 19.90281 37278 ft 487 kts 157°
2026-04-30 05:56 51.46530 19.92012 37430 ft 488 kts 157°
2026-04-30 05:56 51.43346 19.93721 37450 ft 488 kts 157°
2026-04-30 05:57 51.36911 19.97166 37464 ft 487 kts 157°
2026-04-30 05:57 51.30488 20.00591 37459 ft 486 kts 158°
2026-04-30 05:58 51.24073 20.04003 37459 ft 485 kts 158°
2026-04-30 05:58 51.17671 20.07401 37456 ft 485 kts 158°
2026-04-30 05:59 51.11272 20.10787 37461 ft 484 kts 158°
2026-04-30 05:59 51.04884 20.14158 37453 ft 483 kts 158°
2026-04-30 06:00 50.98495 20.17519 37452 ft 483 kts 158°
2026-04-30 06:00 50.92113 20.20867 37460 ft 483 kts 158°
2026-04-30 06:01 50.85726 20.24208 37457 ft 483 kts 158°
2026-04-30 06:01 50.79384 20.27516 37459 ft 483 kts 159°
2026-04-30 06:02 50.72983 20.30845 37457 ft 483 kts 159°
2026-04-30 06:02 50.66588 20.34161 37452 ft 483 kts 159°
2026-04-30 06:03 50.60184 20.37473 37454 ft 484 kts 159°
2026-04-30 06:03 50.53816 20.40757 37452 ft 484 kts 159°
2026-04-30 06:04 50.47402 20.44054 37454 ft 485 kts 159°
2026-04-30 06:05 50.37750 20.48999 37450 ft 486 kts 159°
2026-04-30 06:05 50.31352 20.52265 37454 ft 486 kts 159°
2026-04-30 06:06 50.24916 20.55541 37454 ft 486 kts 160°
2026-04-30 06:06 50.18476 20.58810 37458 ft 487 kts 160°
2026-04-30 06:07 50.12025 20.62075 37452 ft 487 kts 160°
2026-04-30 06:07 50.05619 20.65308 37452 ft 487 kts 160°
2026-04-30 06:08 49.99164 20.68557 37455 ft 487 kts 160°
2026-04-30 06:08 49.92716 20.71793 37461 ft 487 kts 160°
2026-04-30 06:09 49.86256 20.75026 37451 ft 487 kts 160°
2026-04-30 06:09 49.79788 20.78254 37457 ft 487 kts 160°
2026-04-30 06:10 49.73363 20.81452 37453 ft 488 kts 160°
2026-04-30 06:10 49.66896 20.84661 37450 ft 488 kts 160°
2026-04-30 06:11 49.60435 20.87859 37448 ft 488 kts 160°
2026-04-30 06:11 49.53971 20.91050 37441 ft 487 kts 160°
2026-04-30 06:12 49.47514 20.94228 37441 ft 487 kts 160°
2026-04-30 06:12 49.41102 20.97376 37434 ft 486 kts 160°
2026-04-30 06:13 49.34661 21.00530 37439 ft 485 kts 160°
2026-04-30 06:13 49.28124 21.03167 37442 ft 486 kts 166°
2026-04-30 06:14 49.21520 21.05380 37424 ft 485 kts 166°
2026-04-30 06:14 49.14922 21.07593 37422 ft 484 kts 166°
2026-04-30 06:15 49.08352 21.09857 37421 ft 483 kts 166°
2026-04-30 06:15 49.01792 21.12139 37414 ft 482 kts 166°
2026-04-30 06:16 48.95295 21.14395 37411 ft 481 kts 166°
2026-04-30 06:16 48.88768 21.16651 37411 ft 481 kts 166°
2026-04-30 06:17 48.82252 21.18896 37405 ft 480 kts 166°
2026-04-30 06:17 48.75735 21.21136 37401 ft 479 kts 166°
2026-04-30 06:18 48.69218 21.23370 37401 ft 479 kts 166°
2026-04-30 06:18 48.62719 21.25592 37404 ft 478 kts 167°
2026-04-30 06:19 48.56264 21.27794 37401 ft 478 kts 167°
2026-04-30 06:19 48.49798 21.30154 37398 ft 478 kts 163°
2026-04-30 06:20 48.43425 21.33051 37395 ft 479 kts 162°
2026-04-30 06:20 48.37054 21.36048 37385 ft 480 kts 162°
2026-04-30 06:21 48.30651 21.39003 37371 ft 482 kts 163°
2026-04-30 06:21 48.24215 21.41926 37369 ft 483 kts 163°
2026-04-30 06:22 48.17772 21.44834 37369 ft 484 kts 163°
2026-04-30 06:22 48.11362 21.47720 37369 ft 485 kts 163°
2026-04-30 06:23 48.04900 21.50624 37372 ft 485 kts 163°
2026-04-30 06:23 47.98421 21.53528 37375 ft 485 kts 163°
2026-04-30 06:24 47.91944 21.56425 37373 ft 485 kts 163°
2026-04-30 06:24 47.85526 21.59287 37366 ft 484 kts 163°
2026-04-30 06:25 47.79065 21.62161 37361 ft 483 kts 164°
2026-04-30 06:25 47.72619 21.65021 37341 ft 482 kts 164°
2026-04-30 06:26 47.66225 21.67851 37343 ft 482 kts 164°
2026-04-30 06:26 47.59798 21.70688 37344 ft 481 kts 164°
2026-04-30 06:27 47.53391 21.73509 37347 ft 480 kts 164°
2026-04-30 06:27 47.46988 21.76321 37346 ft 479 kts 164°
2026-04-30 06:28 47.40584 21.79127 37345 ft 479 kts 165°
2026-04-30 06:28 47.34221 21.81908 37334 ft 479 kts 165°
2026-04-30 06:29 47.27833 21.84738 37316 ft 480 kts 160°
2026-04-30 06:29 47.21939 21.89326 37311 ft 481 kts 142°
2026-04-30 06:30 47.16790 21.95623 37318 ft 482 kts 140°
2026-04-30 06:30 47.11717 22.01967 37318 ft 483 kts 140°
2026-04-30 06:31 47.06566 22.08320 37318 ft 484 kts 141°
2026-04-30 06:31 47.01380 22.14640 37315 ft 485 kts 141°
2026-04-30 06:32 46.96172 22.20951 37306 ft 486 kts 141°
2026-04-30 06:32 46.90985 22.27221 37296 ft 487 kts 141°
2026-04-30 06:33 46.85760 22.33523 37287 ft 487 kts 141°
2026-04-30 06:33 46.80522 22.39825 37275 ft 487 kts 141°
2026-04-30 06:34 46.75286 22.46110 37273 ft 487 kts 141°
2026-04-30 06:34 46.70044 22.52386 37274 ft 487 kts 142°
2026-04-30 06:35 46.64801 22.58646 37274 ft 487 kts 142°
2026-04-30 06:35 46.59563 22.64883 37274 ft 487 kts 142°
2026-04-30 06:36 46.54321 22.71110 37272 ft 487 kts 142°
2026-04-30 06:36 46.49107 22.77287 37268 ft 486 kts 142°
2026-04-30 06:37 46.43858 22.83491 37279 ft 486 kts 142°
2026-04-30 06:37 46.38609 22.89678 37275 ft 486 kts 142°
2026-04-30 06:38 46.33362 22.95847 37278 ft 486 kts 143°
2026-04-30 06:38 46.28111 23.02005 37282 ft 485 kts 143°
2026-04-30 06:39 46.22891 23.08111 37287 ft 485 kts 143°
2026-04-30 06:39 46.17641 23.14236 37287 ft 486 kts 143°
2026-04-30 06:40 46.12383 23.20356 37296 ft 486 kts 143°
2026-04-30 06:40 46.07108 23.26480 37289 ft 486 kts 143°
2026-04-30 06:41 46.01834 23.32586 37294 ft 486 kts 144°
2026-04-30 06:41 45.96554 23.38685 37296 ft 487 kts 144°
2026-04-30 06:42 45.91270 23.44773 37297 ft 487 kts 144°
2026-04-30 06:42 45.86007 23.50822 37290 ft 488 kts 144°
2026-04-30 06:43 45.80700 23.56906 37284 ft 488 kts 144°
2026-04-30 06:43 45.75382 23.62986 37280 ft 488 kts 144°
2026-04-30 06:44 45.70963 23.68028 37285 ft 488 kts 145°
2026-04-30 06:44 45.64772 23.75074 37281 ft 489 kts 145°
2026-04-30 06:45 45.60329 23.80117 37268 ft 489 kts 145°
2026-04-30 06:45 45.54987 23.86168 37278 ft 489 kts 145°
2026-04-30 06:46 45.49648 23.92200 37285 ft 489 kts 145°
2026-04-30 06:46 45.44308 23.98218 37269 ft 489 kts 145°
2026-04-30 06:47 45.39006 24.04178 37289 ft 488 kts 146°
2026-04-30 06:47 45.33661 24.10171 37279 ft 489 kts 146°
2026-04-30 06:48 45.28323 24.16142 37283 ft 488 kts 146°
2026-04-30 06:48 45.22963 24.22122 37279 ft 489 kts 146°
2026-04-30 06:49 45.17629 24.28060 37286 ft 490 kts 146°
2026-04-30 06:49 45.12246 24.34038 37288 ft 491 kts 146°
2026-04-30 06:50 45.06894 24.39965 37289 ft 491 kts 146°
2026-04-30 06:50 45.01495 24.45931 37270 ft 491 kts 146°
2026-04-30 06:51 44.96106 24.51872 37279 ft 491 kts 146°
2026-04-30 06:51 44.90723 24.57792 37281 ft 490 kts 147°
2026-04-30 06:52 44.85374 24.63659 37277 ft 489 kts 147°
2026-04-30 06:52 44.80000 24.69538 37278 ft 489 kts 147°
2026-04-30 06:53 44.74621 24.75410 37274 ft 488 kts 147°
2026-04-30 06:53 44.69252 24.81257 37266 ft 487 kts 147°
2026-04-30 06:54 44.63924 24.87046 37268 ft 486 kts 147°
2026-04-30 06:54 44.58562 24.92856 37274 ft 486 kts 148°
2026-04-30 06:55 44.53209 24.98643 37265 ft 486 kts 148°
2026-04-30 06:55 44.47884 25.04386 37269 ft 486 kts 148°
2026-04-30 06:56 44.42517 25.10160 37262 ft 487 kts 148°
2026-04-30 06:56 44.37136 25.15936 37255 ft 488 kts 148°
2026-04-30 06:57 44.31724 25.21732 37252 ft 490 kts 148°
2026-04-30 06:57 44.26306 25.27520 37251 ft 491 kts 148°
2026-04-30 06:58 44.20861 25.33323 37251 ft 493 kts 148°
2026-04-30 06:58 44.15437 25.39091 37254 ft 494 kts 148°
2026-04-30 06:59 44.09958 25.44902 37219 ft 495 kts 148°
2026-04-30 06:59 44.04476 25.50706 37216 ft 494 kts 148°
2026-04-30 07:00 43.99007 25.56481 37217 ft 492 kts 148°
2026-04-30 07:00 43.93595 25.62182 37225 ft 491 kts 148°
2026-04-30 07:01 43.88143 25.67910 37210 ft 490 kts 148°
2026-04-30 07:01 43.85454 25.70736 37191 ft 478 kts 149°
2026-04-30 07:01 43.82845 25.73478 37146 ft 465 kts 149°
2026-04-30 07:01 43.80265 25.76177 36535 ft 466 kts 149°
2026-04-30 07:02 43.77651 25.78899 35697 ft 474 kts 150°
2026-04-30 07:02 43.75017 25.81713 34888 ft 484 kts 147°
2026-04-30 07:02 43.72564 25.84990 34098 ft 496 kts 141°
2026-04-30 07:02 43.70193 25.88498 33285 ft 501 kts 139°
2026-04-30 07:03 43.67832 25.92074 32494 ft 505 kts 139°
2026-04-30 07:03 43.65463 25.95674 31687 ft 509 kts 139°
2026-04-30 07:03 43.63067 25.99290 30867 ft 512 kts 138°
2026-04-30 07:03 43.60645 26.02913 29986 ft 515 kts 138°
2026-04-30 07:04 43.58243 26.06481 29343 ft 511 kts 138°
2026-04-30 07:04 43.55840 26.10036 28910 ft 502 kts 139°
2026-04-30 07:04 43.53465 26.13538 28441 ft 495 kts 139°
2026-04-30 07:04 43.51128 26.16976 27903 ft 490 kts 139°
2026-04-30 07:05 43.46496 26.23764 26820 ft 481 kts 139°
2026-04-30 07:05 43.44205 26.27117 26296 ft 477 kts 138°
2026-04-30 07:05 43.41970 26.30386 25799 ft 472 kts 138°
2026-04-30 07:06 43.39725 26.33665 25311 ft 468 kts 138°
2026-04-30 07:06 43.37514 26.36894 24775 ft 460 kts 138°
2026-04-30 07:06 43.35332 26.40077 24090 ft 456 kts 138°
2026-04-30 07:06 43.33161 26.43237 23340 ft 452 kts 138°
2026-04-30 07:07 43.31015 26.46359 22613 ft 447 kts 138°
2026-04-30 07:07 43.28889 26.49448 21966 ft 444 kts 138°
2026-04-30 07:07 43.26767 26.52526 21341 ft 443 kts 138°
2026-04-30 07:07 43.24654 26.55590 20820 ft 439 kts 138°
2026-04-30 07:08 43.22561 26.58622 20307 ft 436 kts 138°
2026-04-30 07:08 43.20484 26.61627 19802 ft 432 kts 138°
2026-04-30 07:08 43.18426 26.64603 19312 ft 428 kts 138°
2026-04-30 07:08 43.16379 26.67559 18826 ft 425 kts 138°
2026-04-30 07:09 43.14351 26.70483 18306 ft 422 kts 138°
2026-04-30 07:09 43.12336 26.73388 17761 ft 419 kts 138°
2026-04-30 07:09 43.10338 26.76265 17246 ft 415 kts 137°
2026-04-30 07:09 43.08358 26.79113 16761 ft 410 kts 137°
2026-04-30 07:10 43.06428 26.81888 16296 ft 406 kts 137°
2026-04-30 07:10 43.04461 26.84710 15809 ft 402 kts 137°
2026-04-30 07:10 43.02488 26.87382 15337 ft 396 kts 146°
2026-04-30 07:10 43.00206 26.89252 15012 ft 382 kts 157°
2026-04-30 07:11 42.97855 26.90938 14529 ft 381 kts 156°
2026-04-30 07:11 42.95516 26.92637 14075 ft 379 kts 156°
2026-04-30 07:11 42.93198 26.94338 13572 ft 378 kts 156°
2026-04-30 07:11 42.90893 26.96042 13074 ft 376 kts 155°
2026-04-30 07:12 42.88596 26.97743 12617 ft 374 kts 155°
2026-04-30 07:12 42.86317 26.99434 12121 ft 372 kts 155°
2026-04-30 07:12 42.84055 27.01116 11764 ft 367 kts 155°
2026-04-30 07:12 42.81851 27.02755 11615 ft 355 kts 155°
2026-04-30 07:13 42.79711 27.04344 11440 ft 346 kts 155°
2026-04-30 07:13 42.77628 27.05887 11303 ft 336 kts 155°
2026-04-30 07:13 42.76059 27.07047 11099 ft 333 kts 155°
2026-04-30 07:13 42.74047 27.08535 10907 ft 325 kts 155°
2026-04-30 07:14 42.72075 27.09991 10677 ft 321 kts 155°
2026-04-30 07:14 42.70113 27.11439 10359 ft 320 kts 155°
2026-04-30 07:14 42.68162 27.12877 10144 ft 316 kts 154°
2026-04-30 07:14 42.66252 27.14285 9981 ft 309 kts 154°
2026-04-30 07:15 42.64394 27.15655 9942 ft 298 kts 154°
2026-04-30 07:15 42.62548 27.17013 9423 ft 305 kts 154°
2026-04-30 07:15 42.60715 27.18361 9130 ft 303 kts 154°
2026-04-30 07:15 42.58863 27.19722 8813 ft 302 kts 154°
2026-04-30 07:16 42.57024 27.21073 8521 ft 299 kts 154°
2026-04-30 07:16 42.55199 27.22415 8264 ft 296 kts 154°
2026-04-30 07:16 42.53420 27.23720 8205 ft 286 kts 154°
2026-04-30 07:16 42.51640 27.24841 8043 ft 277 kts 170°
2026-04-30 07:17 42.49781 27.24890 7912 ft 264 kts 196°
2026-04-30 07:17 42.48116 27.23944 7648 ft 257 kts 217°
2026-04-30 07:17 42.45498 27.20732 7127 ft 254 kts 227°
2026-04-30 07:18 42.44247 27.19036 6847 ft 255 kts 226°
2026-04-30 07:18 42.42995 27.17366 6543 ft 258 kts 225°
2026-04-30 07:18 42.41469 27.16066 6209 ft 265 kts 198°
2026-04-30 07:18 42.39620 27.15933 5943 ft 273 kts 169°
2026-04-30 07:19 42.37892 27.17081 5532 ft 284 kts 138°
2026-04-30 07:19 42.36683 27.19159 5264 ft 283 kts 114°
2026-04-30 07:19 42.36263 27.21727 5012 ft 281 kts 90°
2026-04-30 07:19 42.36708 27.24311 4587 ft 285 kts 64°
2026-04-30 07:20 42.37860 27.26416 4300 ft 282 kts 47°
2026-04-30 07:20 42.39247 27.28232 3989 ft 274 kts 45°
2026-04-30 07:20 42.40621 27.29973 3687 ft 267 kts 46°
2026-04-30 07:20 42.41945 27.31671 3414 ft 257 kts 46°
2026-04-30 07:21 42.43211 27.33316 3251 ft 246 kts 46°
2026-04-30 07:21 42.44415 27.34889 3046 ft 238 kts 46°
2026-04-30 07:21 42.45573 27.36413 2924 ft 223 kts 47°
2026-04-30 07:21 42.46650 27.37822 2667 ft 209 kts 47°
2026-04-30 07:22 42.48601 27.40396 2141 ft 185 kts 47°
2026-04-30 07:22 42.49490 27.41572 1900 ft 169 kts 47°
2026-04-30 07:22 42.50291 27.42630 1721 ft 156 kts 48°
2026-04-30 07:23 42.51050 27.43638 1490 ft 147 kts 47°
2026-04-30 07:23 42.51745 27.44557 1320 ft 136 kts 48°
2026-04-30 07:23 42.52402 27.45426 1136 ft 129 kts 47°
2026-04-30 07:23 42.53040 27.46272 955 ft 127 kts 48°
2026-04-30 07:24 42.53672 27.47110 791 ft 127 kts 48°
2026-04-30 07:24 42.54306 27.47947 628 ft 128 kts 47°
2026-04-30 07:24 42.54934 27.48776 468 ft 125 kts 48°
2026-04-30 07:24 42.55552 27.49599 258 ft 123 kts 45°
2026-04-30 07:25 42.56171 27.50403 182 ft 122 kts 46°
2026-04-30 07:25 42.56680 27.51094 172 ft 77 kts 44°
2026-04-30 07:25 42.56917 27.51405 173 ft 26 kts 44°
2026-04-30 07:25 42.57042 27.51569 174 ft 24 kts 44°
2026-04-30 07:26 42.57162 27.51717 173 ft 23 kts 33°
2026-04-30 07:26 42.57256 27.51854 172 ft 20 kts 64°
2026-04-30 07:26 42.57276 27.52027 172 ft 14 kts 89°
2026-04-30 07:26 42.57278 27.52152 172 ft 13 kts 89°
2026-04-30 07:27 42.57228 27.52241 173 ft 13 kts 164°
2026-04-30 07:27 42.57152 27.52194 173 ft 12 kts 220°
2026-04-30 07:27 42.57088 27.52119 173 ft 12 kts 220°
2026-04-30 07:27 42.57025 27.52048 173 ft 12 kts 220°
2026-04-30 07:28 42.56963 27.51978 173 ft 11 kts 220°
2026-04-30 07:28 42.56903 27.51910 173 ft 11 kts 220°
2026-04-30 07:28 42.56845 27.51842 173 ft 11 kts 225°
2026-04-30 07:28 42.56796 27.51767 173 ft 10 kts 229°
2026-04-30 07:29 42.56749 27.51694 173 ft 10 kts 229°
2026-04-30 07:29 42.56707 27.51641 173 ft 7 kts 195°
2026-04-30 07:29 42.56680 27.51673 173 ft 2 kts 89°
2026-04-30 07:29 42.56680 27.51685 173 ft 0 kts 89°